ATLAS 5 CENTAUR DEB, 49340

Orbit data source: Space-Track

ATLAS 5 CENTAUR DEB, 49340 is space debris in HEO originally from a launch on Wed, 17 Oct 2018 UTC launched from the Air Force Eastern Test Range (AFETR). Debris objects in space refer to the collection of defunct objects orbiting the Earth. Examples of debris include non-operational satellites, rocket bodies, and fragments generated from explosions, collisions, or faulty payload assembly.

Loading next visibility...
Identifier
49340, 2018-079ER
Orbit
HEO
Country
Flag of USUS
Related business
Flag of USUnited Launch Alliance/Lockheed Martin (US)
Manufacturer
ULA Decatur
Mission
Spacecraft
Bus & Motor
Unknown
Mass
Unknown
Launch date (UTC)
2018-10-17 (8 years ago)
Launch vehicle
Unknown
Launch site
Air Force Eastern Test Range (AFETR)
Object type
Payload
Rocket body
Debris
Shape & HBR
Unknown shape, 1.1 m
Radar Cross Section
RCS unknown

Expand to show TLE details & history
Last TLE update: 1 day ago

TLE from 1 day ago
0 ATLAS 5 CENTAUR DEB
1 49340U 18079ER  26221.92595257 -.00000171  00000-0  00000+0 0  9991
2 49340  13.7914  33.8760 4756463 308.9349  17.2962  1.76308807 31859
Epoch: 2026-08-09T22:13Z
TLE epoch observation values (Epoch: 2026-08-09T22:13:22.302Z)
Latitude
-0.00007°
Longitude
102.17371°
Altitude
10,861.655 km
Speed
5.698 km/s
True Right ascension
02h 15m 43s
True Declination
0° 00' 00"
Sunlit
Object was in daylight at epoch
Visualization orbit readout
Latitude
Unknown
Longitude
Unknown
Altitude
Unknown
Speed
Unknown
Apparent Right ascension
Unknown
Apparent Declination
Unknown
Sunlit
N/A
Visualization observer readout
Local Sidereal Time
16:14:18
Azimuth
Unknown
Elevation
Unknown
Doppler factor
Unknown
Orbital elements
Apogee altitude
36,335.419 km
Perigee altitude
8,799.627 km
Semi-major axis
28,945.66 km
Eccentricity
0.47565
Inclination
13.7914°
RAAN
33.876°
Arg. of periapsis
308.9349°
True anomaly
50.7283°
Mean anomaly
17.2962°
Eccentric anomaly
31.55988°
Mean motion
0.44073 °/min
Orbital period
816.84 mins
BSTAR
0
Loading maneuver chart data...
Computing Atmospheric mass density...

Documentation

Showing up to 5 results
|